Погода в Усть-Ваеньге

Россия / Архангельская область     63°00′14″N   42°37′54″E
темп.,
°C
ветер,
м/с
пор.,
м/с
влажн.,
%
обл.,
%
осадки,
мм/ч
давл.,
гПа
погр.,
м
23 апреля, пт
пт2300:00+3юз389088 0.1 1012664
03:00+3юз2689100 0.1 1014300
06:00+4ююв259374 0.0 1014228
09:00+8ююв36695 0.0 1015528
12:00+13ююв47565 0.0 10151221
15:00+15ююв474798 0.0 10142146
18:00+13юв4105983 0.4 1013679
21:00+10юв4137592 1.4 1013571
24 апреля, сб
сб2400:00+9ююв5138076 0.1 1013636
03:00+8юв51383100 0.2 1013491
06:00+8юв4118382 0.0 1013515
09:00+11юв5126799 0.0 1013725
12:00+15юв6946100 0.2 10121986
15:00+15юв584493 0.2 10112231
18:00+13юв59495 0.0 10101511
21:00+10вюв4116390 0.0 1010663
25 апреля, вс
вс2500:00+7вюв4127449 0.0 1009608
03:00+6в41082100 0.0 1008463
06:00+7в4978100 0.0 1006693
09:00+6в4990100 0.1 1005987
12:00+6в3789100 0.3 10041062
15:00+6в3691100 1.0 1003957
18:00+5всв3696100 0.9 1002887
21:00+5всв3696100 1.8 1002870
26 апреля, пн
пн2600:00+5всв3697100 0.9 1001788
03:00+4всв2597100 1.8 1000777
06:00+4всв3697100 0.8 1000789
09:00+4всв2597100 1.6 1000785
12:00+5св2394100 0.5 1001815
15:00+5всв1393100 1.1 1001464
18:00+4св1194100 0.3 100149
21:00+4св1197100 0.6 100119
27 апреля, вт
вт2700:00+4ю0098100 0.3 100123
03:00+3ю0099100 1.6 100033
06:00+3ююв1199100 0.6 100097
09:00+3вюв0098100 1.2 1000611
12:00+4юв0097100 0.6 1000681
15:00+3ююв0198100 1.6 1000668
18:00+3ссз1298100 0.8 1000571
21:00+2ссз2398100 1.4 1000428